Skip Page Navigation
NASA JPL Caltech
NASA Logo - Jet Propulsion Laboratory + View the NASA Portal
+ Center for Near-Earth Object Studies
JPL Home Earth Solar System Stars & Galaxies Technology
JPL Solar System Dynamics
BODIES ORBITS EPHEMERIDES TOOLS PHYSICAL DATA DISCOVERY FAQ SITE MAP
IMPORTANT: The SSD Announcement email list is now available. Major changes are coming in the near future, including possible hostname and/or URL changes. To be notified of such changes, subscribe to this email list.

Please visit this page for more details.


JPL Small-Body Database Browser
Search: [ help ]  
193579 (2001 BS2)
Classification: Inner Main-belt Asteroid          SPK-ID: 2193579
Ephemeris | Orbit Diagram | Orbital Elements | Mission Design | Physical Parameters | Discovery Circumstances ]

[ show orbit diagram ]
Orbital Elements at Epoch 2458600.5 (2019-Apr-27.0) TDB
Reference: JPL 9 (heliocentric ecliptic J2000)
 Element Value Uncertainty (1-sigma)   Units 
e .02543900074290687 8.0163e-08  
a 1.936763874442392 9.5425e-09 au
q 1.887494536801617 1.5411e-07 au
i 18.59412960119384 9.3519e-06 deg
node 319.3425685028494 1.966e-05 deg
peri 124.2313260730163 0.0001595 deg
M 312.6791501993701 0.00015933 deg
tp 2458729.908700176090
(2019-Sep-03.40870018)
0.00043586 TDB
period 984.4948317638259
2.70
7.2759e-06
1.992e-08
d
yr
n .3656697713232503 2.7025e-09 deg/d
Q 1.986033212083167 9.7852e-09 au
  Orbit Determination Parameters
   # obs. used (total)      227  
   data-arc span      6423 days (17.59 yr)  
   first obs. used      2001-01-05  
   last obs. used      2018-08-07  
   planetary ephem.      DE431  
   SB-pert. ephem.      SB431-N16  
   condition code      0  
   norm. resid. RMS      .57987  
   source      ORB  
   producer      Otto Matic  
   solution date      2019-Jul-13 11:22:24  

Additional Information
 Earth MOID = .920043 au 
 Jupiter MOID = 3.06964 au 
 T_jup = 3.843 
[ show covariance matrix ]

Ephemeris | Orbit Diagram | Orbital Elements | Mission Design | Physical Parameters | Discovery Circumstances ]

Physical Parameter Table
Parameter Symbol Value Units Sigma Reference Notes
absolute magnitude H 16.7   n/a MPO227069  

193579 (2001 BS2)          Discovered 2001-Jan-18 by LINEAR at Socorro
Reference: 20081113/Numbers.arcLast Updated: 2008-11-17

Alternate Designations
 2001 BS2 = 2002 PU7 
Ephemeris | Orbit Diagram | Orbital Elements | Mission Design | Physical Parameters | Discovery Circumstances ]
ABOUT SSD CREDITS/AWARDS PRIVACY/COPYRIGHT GLOSSARY LINKS
FirstGov 2019-Oct-19 05:59 UT
(server date/time)  
NASA Home Page
Site Manager:   Ryan S. Park
Webmaster  Alan B. Chamberlin